Valcartier, Quebec

10:18 AM EDT on August 16, 2017 (GMT -0400)
Valcartier

Weather History for CYOY - June, 2013

Change the Weather History Date:

Friday, June 14, 2013

  Actual Average Record
Temperature  
Mean Temperature 62 °F -  
Max Temperature 77 °F 71 °F 84 °F (2001)
Min Temperature 46 °F 50 °F 39 °F (2002)
Degree Days  
Heating Degree Days 4    
Growing Degree Days 12 (Base 50)    
Moisture  
Dew Point 42 °F    
Average Humidity 52    
Maximum Humidity 87    
Minimum Humidity 25    
Precipitation  
Precipitation 0.00 in - - ()
Sea Level Pressure  
Sea Level Pressure 29.73 in    
Wind  
Wind Speed 5 mph ()    
Max Wind Speed 20 mph    
Max Gust Speed 25 mph    
Visibility 10.0 miles    
Events      
Averages and records for this station are not official NWS values.
T = Trace of Precipitation, MM = Missing Value Source: Averaged Metar Reports

Daily Weather History Graph

Daily Weather History Graph

Search for Another Location

Airport or City:

Trip Planner

Search our weather history database for the weather conditions in past years. The results will help you decide how hot, cold, wet, or windy it might be!

Date:

Astronomy

Jun. 14, 2013 Rise Set
Actual Time 4:50 AM EDT 8:42 PM EDT
Civil Twilight 4:11 AM EDT 9:21 PM EDT
Nautical Twilight 3:17 AM EDT 10:15 PM EDT
Astronomical Twilight 1:57 AM EDT 11:35 PM EDT
Moon 10:41 AM EDT (6/14) 11:55 PM EDT (6/14)
Length of Visible Light 17h 10m
Length of Day
15h 51m
Waxing Crescent, 30% of the Moon is Illuminated
Jun 14
Waxing Crescent
Jun 16
First Quarter
Jun 23
Full
Jun 30
Last Quarter
Jul 8
New

Hourly Weather History & Observations

Time (EDT) Temp. Dew Point Humidity Pressure Visibility Wind Dir Wind Speed Gust Speed Precip Events Conditions
12:00 AM 50.0 °F 44.6 °F 82% 29.74 in 9.0 mi Calm Calm - N/A   Clear
1:00 AM 48.2 °F 42.8 °F 82% 29.74 in 9.0 mi North 4.6 mph - N/A   Clear
2:00 AM 50.0 °F 42.8 °F 76% 29.74 in 9.0 mi NNW 3.5 mph - N/A   Clear
3:00 AM 46.4 °F 42.8 °F 87% 29.73 in 9.0 mi Calm Calm - N/A   Clear
4:00 AM 46.4 °F 42.8 °F 87% 29.72 in 9.0 mi Calm Calm - N/A   Clear
5:00 AM 46.4 °F 42.8 °F 87% 29.73 in 9.0 mi Calm Calm - N/A   Partly Cloudy
6:00 AM 50.0 °F 44.6 °F 82% 29.74 in 9.0 mi NW 2.3 mph - N/A   Clear
7:00 AM 55.4 °F 44.6 °F 67% 29.74 in 9.0 mi North 2.3 mph - N/A   Clear
8:00 AM 60.8 °F 48.2 °F 63% 29.74 in 9.0 mi Calm Calm - N/A   Clear
9:00 AM 66.2 °F 46.4 °F 49% 29.74 in 15.0 mi West 2.3 mph - N/A   Mostly Cloudy
10:00 AM 69.8 °F 46.4 °F 43% 29.73 in 15.0 mi WNW 3.5 mph - N/A   Mostly Cloudy
11:00 AM 73.4 °F 48.2 °F 41% 29.73 in 15.0 mi NNW 9.2 mph - N/A   Mostly Cloudy
12:00 PM 73.4 °F 48.2 °F 41% 29.73 in 15.0 mi North 8.1 mph - N/A   Partly Cloudy
12:14 PM - - N/A% - 15.0 mi NNW 9.2 mph - N/A   Partly Cloudy
1:00 PM 75.2 °F 50.0 °F 41% 29.71 in 9.0 mi NW 9.2 mph 19.6 mph N/A   Scattered Clouds
2:00 PM 75.2 °F 48.2 °F 38% 29.70 in 9.0 mi WNW 10.4 mph 19.6 mph N/A   Partly Cloudy
3:00 PM 75.2 °F 46.4 °F 36% 29.70 in 7.0 mi NNW 12.7 mph 19.6 mph N/A   Partly Cloudy
4:00 PM 77.0 °F 41.0 °F 28% 29.70 in 8.0 mi North 15.0 mph 21.9 mph N/A   Clear
5:00 PM 75.2 °F 37.4 °F 25% 29.70 in 9.0 mi North 15.0 mph 24.2 mph N/A   Clear
6:00 PM 73.4 °F 37.4 °F 27% 29.72 in 9.0 mi North 19.6 mph 25.3 mph N/A   Clear
7:00 PM 69.8 °F 33.8 °F 27% 29.73 in 9.0 mi North 17.3 mph - N/A   Clear
8:00 PM 66.2 °F 33.8 °F 30% 29.76 in 9.0 mi North 10.4 mph - N/A   Clear
9:00 PM 62.6 °F 33.8 °F 34% 29.77 in 7.0 mi NNW 6.9 mph - N/A   Clear
10:00 PM 62.6 °F 35.6 °F 37% 29.79 in 9.0 mi North 3.5 mph - N/A   Clear
11:00 PM 60.8 °F 35.6 °F 39% 29.80 in 9.0 mi North 9.2 mph - N/A   Clear